User: anonymous   Login
Location: Morisset
(33.1080°S, 151.4871°E)
Time: 00:37:39
(UTC+00:00)
Language:

Cosmos 44 - Orbit

View from above orbital plane
View from above orbital plane
View from above satellite
View from above satellite

Ground track
Ground track

The orbit data is extracted from the following two-line orbital elements,

1 00876U 64053A   21015.46682610 -.00000058  00000-0  13826-4 0  9999
2 00876  65.0608  41.4145 0151041 313.2829  45.5751 14.63780522998895
Epoch (UTC): 15 January 2021 11:12:13
Eccentricity: 0.0151041
inclination: 65.0608°
perigee height: 574 km
apogee height: 787 km
right ascension of ascending node: 41.4145°
argument of perigee: 313.2829°
revolutions per day: 14.63780522
mean anomaly at epoch: 45.5751°
orbit number at epoch: 99889

The dashed part of the orbit path shows where the satellite is in the earth's shadow,  

DLR